Hourly Weather Roundup
Issued by NWS Central Illinois

Home | Current Version | Previous Version | Text Only | Print | Product List | Glossary On
Versions: 1 2 3 4 5 6 7 8 9 10 11 12 13 14 15 16 17 18 19 20 21 22 23 24 25 26 27 28 29 30 31 32 33 34 35 36 37 38 39 40 41 42 43 44 45 46 47 48 49 50
000
NZUS43 KILX 181610
HWRILX

AREA WEATHER ROUNDUP
NATIONAL WEATHER SERVICE, LINCOLN IL
1100 AM CDT THU SEP 18 2014


CITY           SKY/WX    TMP DP  RH WIND       PRES   REMARKS
BLOOMINGTON    SUNNY     77  57  49 E10       30.13S
CHAMPAIGN      SUNNY     68  50  52 E9        30.12S
DECATUR        SUNNY     69  50  50 E13       30.11S
FLORA          SUNNY     67  52  58 NE9       30.09S
GALESBURG      SUNNY     71  57  61 E6        30.12S
JACKSONVILLE   SUNNY     71  55  58 E10       30.11S
LACON          SUNNY     68  51  52 E7        30.12S
LAWRENCEVILLE  SUNNY     69  53  56 E10       30.09S
LITCHFIELD     PTSUNNY   64  54  69 E9        30.10S
$$


CITY           SKY/WX    TMP DP  RH WIND       PRES   REMARKS
LINCOLN        SUNNY     71  52  52 E8        30.09F
MACOMB         SUNNY     69  53  57 SE7       30.13S
MATTOON        MOSUNNY   68  50  52 E9        30.10S
MT CARMEL AP   SUNNY     72  52  49 E9        30.08S
OLNEY-NOBLE AP SUNNY     68  52  56 NE7       30.09S
PARIS          SUNNY     69  50  50 E7        30.12R
PEORIA         SUNNY     69  54  58 E9        30.12S
PONTIAC        SUNNY     70  48  46 E6        30.13S
RANTOUL        SUNNY     69  47  45 NE9       30.13S
ROBINSON       SUNNY     69  57  64 NE6       30.10S
SPRINGFIELD    SUNNY     69  55  60 E9        30.11S
TAYLORVILLE    SUNNY     68  52  56 E9        30.10S
$$

...REGIONAL REPORTS...


CITY           SKY/WX    TMP DP  RH WIND       PRES   REMARKS
CHICAGO O`HARE PTSUNNY   67  55  65 NE9       30.15S
KANKAKEE       SUNNY     65  50  59 NE7       30.14F
MOLINE         SUNNY     67  53  61 E8        30.12F
MOUNT VERNON   PTSUNNY   66  55  68 E7        30.09S
PITTSFIELD     MOSUNNY   69  53  58 SE8       30.11S
QUINCY         SUNNY     65  53  65 E8        30.10R
ROCKFORD       CLOUDY    57  52  83 E8        30.20S
$$


CITY           SKY/WX    TMP DP  RH WIND       PRES   REMARKS
BURLINGTON     NOT AVBL
CEDAR RAPIDS   SUNNY     65  55  70 SE6       30.12S
DES MOINES     PTSUNNY   61  56  83 SE6       30.09F
KIRKSVILLE     PTSUNNY   63  57  81 E10       30.10S
OTTUMWA        SUNNY     65  54  67 SE12      30.09F
ST LOUIS       CLOUDY    66  55  67 E7        30.09S
$$


CITY           SKY/WX    TMP DP  RH WIND       PRES   REMARKS
TERRE HAUTE    SUNNY     69  49  48 NE8       30.10S
EVANSVILLE     PTSUNNY   67  52  58 E8        30.07F
INDIANAPOLIS   MOSUNNY   66  48  52 E7        30.10S
LAFAYETTE      SUNNY     63  50  62 NE13      30.12S
MADISON        CLOUDY    52  49  89 SE7       30.19S FOG
MILWAUKEE      CLOUDY    56  50  80 N13       30.19R
$$




USA.gov is the U.S. government's official web portal to all federal, state and local government web resources and services.